Location: Henham
(51.9333°N, 0.2500°E)
Time: 14:42:41
(UTC+00:00)

STARLINK-28 - Pass Details

Date: 23 October 2019
Orbit: 548 x 551 km, 53.0° (Epoch: 17 November)

Event Time Altitude Azimuth Distance (km) Brightness Sun altitude
Rises 18:57:20 0° 285° (WNW) 2,722 8.7 -20.4°
Reaches altitude 10° 18:59:35 10° 284° (WNW) 1,828 7.5 -20.7°
Maximum altitude 19:03:44 80° 199° (SSW) 564 3.5 -21.4°
Enters shadow 19:04:09 69° 137° (SE) 592 3.5 -21.4°
